contact:dominique.lefevre@mio.osupytheas.fr, maurice.libes@osupytheas.fr, didier.mallarino@osupytheas.fr
Project:EMSO http://www.emso-fr.org/EMSO-France
Depth: 2436.0 m
Title:EMSO Ligure Ouest : Data MII capteur OXYGEN
DateTime,Latitude,Longitude,Optode-Type,Optode_Serial,Oxygen,Saturation_Oxygen,Temperature
DateTime,Latitude,Longitude,Optode-Type,Optode_Serial,µmol.l-1,%,degC
2017-11-11T00:01:17,42.805,6.029,4330,1995,199.258,60.932,13.285
2017-11-11T00:04:17,42.805,6.029,4330,1995,199.280,60.939,13.285
2017-11-11T00:07:17,42.805,6.029,4330,1995,199.211,60.918,13.285
2017-11-11T00:10:17,42.805,6.029,4330,1995,199.210,60.917,13.285
2017-11-11T00:13:17,42.805,6.029,4330,1995,199.170,60.905,13.285
2017-11-11T00:16:17,42.805,6.029,4330,1995,199.175,60.907,13.285
2017-11-11T00:19:17,42.805,6.029,4330,1995,199.193,60.912,13.285
2017-11-11T00:22:17,42.805,6.029,4330,1995,199.256,60.931,13.285
2017-11-11T00:25:17,42.805,6.029,4330,1995,199.193,60.912,13.285
2017-11-11T00:28:17,42.805,6.029,4330,1995,199.187,60.910,13.285
2017-11-11T00:31:17,42.805,6.029,4330,1995,199.231,60.924,13.285
2017-11-11T00:34:17,42.805,6.029,4330,1995,199.242,60.927,13.285
2017-11-11T00:37:17,42.805,6.029,4330,1995,199.254,60.931,13.285
2017-11-11T00:40:17,42.805,6.029,4330,1995,199.226,60.922,13.285
2017-11-11T00:43:17,42.805,6.029,4330,1995,199.250,60.929,13.285
2017-11-11T00:46:17,42.805,6.029,4330,1995,199.209,60.917,13.285
2017-11-11T00:49:17,42.805,6.029,4330,1995,199.195,60.913,13.285
2017-11-11T00:52:17,42.805,6.029,4330,1995,199.210,60.918,13.285
2017-11-11T00:55:17,42.805,6.029,4330,1995,199.217,60.920,13.285
2017-11-11T00:58:17,42.805,6.029,4330,1995,199.249,60.929,13.285
2017-11-11T01:01:17,42.805,6.029,4330,1995,199.280,60.939,13.285
2017-11-11T01:04:17,42.805,6.029,4330,1995,199.247,60.928,13.285
2017-11-11T01:07:17,42.805,6.029,4330,1995,199.196,60.913,13.285
2017-11-11T01:10:17,42.805,6.029,4330,1995,199.191,60.911,13.285
2017-11-11T01:13:17,42.805,6.029,4330,1995,199.238,60.926,13.285
2017-11-11T01:16:17,42.805,6.029,4330,1995,199.194,60.912,13.285
2017-11-11T01:19:17,42.805,6.029,4330,1995,199.181,60.908,13.285
2017-11-11T01:22:17,42.805,6.029,4330,1995,199.221,60.921,13.285
2017-11-11T01:25:17,42.805,6.029,4330,1995,199.269,60.935,13.285
2017-11-11T01:28:17,42.805,6.029,4330,1995,199.198,60.914,13.285
2017-11-11T01:31:17,42.805,6.029,4330,1995,199.204,60.916,13.285
2017-11-11T01:34:17,42.805,6.029,4330,1995,199.186,60.910,13.285
2017-11-11T01:37:17,42.805,6.029,4330,1995,199.195,60.913,13.285
2017-11-11T01:40:17,42.805,6.029,4330,1995,199.202,60.915,13.285
2017-11-11T01:43:17,42.805,6.029,4330,1995,199.135,60.895,13.285
2017-11-11T01:46:17,42.805,6.029,4330,1995,199.203,60.915,13.285
2017-11-11T01:49:17,42.805,6.029,4330,1995,199.188,60.911,13.285
2017-11-11T01:52:17,42.805,6.029,4330,1995,199.031,60.863,13.285
2017-11-11T01:55:17,42.805,6.029,4330,1995,199.205,60.916,13.285
2017-11-11T01:58:17,42.805,6.029,4330,1995,199.148,60.898,13.285
2017-11-11T02:01:17,42.805,6.029,4330,1995,199.229,60.923,13.285
2017-11-11T02:04:17,42.805,6.029,4330,1995,199.240,60.926,13.285
2017-11-11T02:07:17,42.805,6.029,4330,1995,199.213,60.918,13.285
2017-11-11T02:10:17,42.805,6.029,4330,1995,199.180,60.908,13.285
2017-11-11T02:13:17,42.805,6.029,4330,1995,199.217,60.919,13.285
2017-11-11T02:16:17,42.805,6.029,4330,1995,199.158,60.901,13.285
2017-11-11T02:19:17,42.805,6.029,4330,1995,199.212,60.918,13.285
2017-11-11T02:22:17,42.805,6.029,4330,1995,199.225,60.922,13.285
2017-11-11T02:25:17,42.805,6.029,4330,1995,199.154,60.900,13.285
2017-11-11T02:28:17,42.805,6.029,4330,1995,199.165,60.904,13.285
2017-11-11T02:31:17,42.805,6.029,4330,1995,199.213,60.918,13.285
2017-11-11T02:34:17,42.805,6.029,4330,1995,199.203,60.915,13.285
2017-11-11T02:37:17,42.805,6.029,4330,1995,199.221,60.921,13.285
2017-11-11T02:40:17,42.805,6.029,4330,1995,199.213,60.918,13.285
2017-11-11T02:43:17,42.805,6.029,4330,1995,199.226,60.922,13.285
2017-11-11T02:46:17,42.805,6.029,4330,1995,199.259,60.932,13.285
2017-11-11T02:49:17,42.805,6.029,4330,1995,199.171,60.906,13.285
2017-11-11T02:52:17,42.805,6.029,4330,1995,199.221,60.921,13.285
2017-11-11T02:55:17,42.805,6.029,4330,1995,199.192,60.912,13.285
2017-11-11T02:58:17,42.805,6.029,4330,1995,199.209,60.917,13.285
2017-11-11T03:01:17,42.805,6.029,4330,1995,199.199,60.914,13.285
2017-11-11T03:04:17,42.805,6.029,4330,1995,199.229,60.923,13.285
2017-11-11T03:07:17,42.805,6.029,4330,1995,199.218,60.920,13.285
2017-11-11T03:10:17,42.805,6.029,4330,1995,199.184,60.909,13.285
2017-11-11T03:13:17,42.805,6.029,4330,1995,199.152,60.900,13.285
2017-11-11T03:16:17,42.805,6.029,4330,1995,199.122,60.890,13.285
2017-11-11T03:19:17,42.805,6.029,4330,1995,199.253,60.930,13.285
2017-11-11T03:22:17,42.805,6.029,4330,1995,199.175,60.907,13.285
2017-11-11T03:25:17,42.805,6.029,4330,1995,199.239,60.926,13.285
2017-11-11T03:28:17,42.805,6.029,4330,1995,199.194,60.912,13.285
2017-11-11T03:31:17,42.805,6.029,4330,1995,199.230,60.923,13.285
2017-11-11T03:34:17,42.805,6.029,4330,1995,199.167,60.904,13.285
2017-11-11T03:37:17,42.805,6.029,4330,1995,199.203,60.915,13.285
2017-11-11T03:40:17,42.805,6.029,4330,1995,199.134,60.894,13.285
2017-11-11T03:43:17,42.805,6.029,4330,1995,199.213,60.918,13.285
2017-11-11T03:46:17,42.805,6.029,4330,1995,199.200,60.914,13.285
2017-11-11T03:49:17,42.805,6.029,4330,1995,199.160,60.902,13.285
2017-11-11T03:52:17,42.805,6.029,4330,1995,199.190,60.911,13.285
2017-11-11T03:55:17,42.805,6.029,4330,1995,199.130,60.893,13.285
2017-11-11T03:58:17,42.805,6.029,4330,1995,199.067,60.874,13.285
2017-11-11T04:01:17,42.805,6.029,4330,1995,199.115,60.888,13.285
2017-11-11T04:04:17,42.805,6.029,4330,1995,199.057,60.871,13.285
2017-11-11T04:07:17,42.805,6.029,4330,1995,199.179,60.908,13.285
2017-11-11T04:10:17,42.805,6.029,4330,1995,199.185,60.910,13.285
2017-11-11T04:13:17,42.805,6.029,4330,1995,199.167,60.904,13.285
2017-11-11T04:16:17,42.805,6.029,4330,1995,199.110,60.887,13.285
2017-11-11T04:19:17,42.805,6.029,4330,1995,199.106,60.886,13.285
2017-11-11T04:22:17,42.805,6.029,4330,1995,199.131,60.893,13.285
2017-11-11T04:25:17,42.805,6.029,4330,1995,199.081,60.878,13.285
2017-11-11T04:28:17,42.805,6.029,4330,1995,199.135,60.895,13.285
2017-11-11T04:31:17,42.805,6.029,4330,1995,199.120,60.890,13.285
2017-11-11T04:34:17,42.805,6.029,4330,1995,199.123,60.891,13.285
2017-11-11T04:37:17,42.805,6.029,4330,1995,199.104,60.885,13.285
2017-11-11T04:40:17,42.805,6.029,4330,1995,199.208,60.917,13.285
2017-11-11T04:43:17,42.805,6.029,4330,1995,199.174,60.906,13.285
2017-11-11T04:46:17,42.805,6.029,4330,1995,199.171,60.906,13.285
2017-11-11T04:49:17,42.805,6.029,4330,1995,199.117,60.889,13.285
2017-11-11T04:52:17,42.805,6.029,4330,1995,199.102,60.885,13.285
2017-11-11T04:55:17,42.805,6.029,4330,1995,199.118,60.889,13.285
2017-11-11T04:58:17,42.805,6.029,4330,1995,199.084,60.879,13.285
2017-11-11T05:01:17,42.805,6.029,4330,1995,199.124,60.891,13.285
2017-11-11T05:04:17,42.805,6.029,4330,1995,199.131,60.893,13.285
2017-11-11T05:07:17,42.805,6.029,4330,1995,199.219,60.920,13.285
2017-11-11T05:10:17,42.805,6.029,4330,1995,199.135,60.894,13.285
2017-11-11T05:13:17,42.805,6.029,4330,1995,199.001,60.853,13.285
2017-11-11T05:16:17,42.805,6.029,4330,1995,199.113,60.888,13.285
2017-11-11T05:19:17,42.805,6.029,4330,1995,199.104,60.885,13.285
2017-11-11T05:22:17,42.805,6.029,4330,1995,199.085,60.879,13.285
2017-11-11T05:25:17,42.805,6.029,4330,1995,199.100,60.884,13.285
2017-11-11T05:28:17,42.805,6.029,4330,1995,199.112,60.887,13.285
2017-11-11T05:31:17,42.805,6.029,4330,1995,199.141,60.896,13.285
2017-11-11T05:34:17,42.805,6.029,4330,1995,199.115,60.888,13.285
2017-11-11T05:37:17,42.805,6.029,4330,1995,199.165,60.904,13.285
2017-11-11T05:40:17,42.805,6.029,4330,1995,199.153,60.900,13.285
2017-11-11T05:43:17,42.805,6.029,4330,1995,199.087,60.880,13.285
2017-11-11T05:46:17,42.805,6.029,4330,1995,199.089,60.880,13.285
2017-11-11T05:49:17,42.805,6.029,4330,1995,198.996,60.852,13.285
2017-11-11T05:52:17,42.805,6.029,4330,1995,199.093,60.882,13.285
2017-11-11T05:55:17,42.805,6.029,4330,1995,199.072,60.875,13.285
2017-11-11T05:58:17,42.805,6.029,4330,1995,199.029,60.862,13.285
2017-11-11T06:01:17,42.805,6.029,4330,1995,199.024,60.861,13.285
2017-11-11T06:04:17,42.805,6.029,4330,1995,199.061,60.872,13.285
2017-11-11T06:07:17,42.805,6.029,4330,1995,199.105,60.885,13.285
2017-11-11T06:10:17,42.805,6.029,4330,1995,199.007,60.855,13.285
2017-11-11T06:13:17,42.805,6.029,4330,1995,199.015,60.858,13.285
2017-11-11T06:16:17,42.805,6.029,4330,1995,199.057,60.870,13.285
2017-11-11T06:19:17,42.805,6.029,4330,1995,198.998,60.853,13.285
2017-11-11T06:22:17,42.805,6.029,4330,1995,199.050,60.869,13.285
2017-11-11T06:25:17,42.805,6.029,4330,1995,199.064,60.873,13.285
2017-11-11T06:28:17,42.805,6.029,4330,1995,199.009,60.856,13.285
2017-11-11T06:31:17,42.805,6.029,4330,1995,199.107,60.886,13.285
2017-11-11T06:34:17,42.805,6.029,4330,1995,199.033,60.863,13.285
2017-11-11T06:37:17,42.805,6.029,4330,1995,199.071,60.875,13.285
2017-11-11T06:40:17,42.805,6.029,4330,1995,199.103,60.885,13.285
2017-11-11T06:43:17,42.805,6.029,4330,1995,198.986,60.849,13.285
2017-11-11T06:46:17,42.805,6.029,4330,1995,199.000,60.853,13.285
2017-11-11T06:49:17,42.805,6.029,4330,1995,199.072,60.875,13.285
2017-11-11T06:52:17,42.805,6.029,4330,1995,199.094,60.882,13.285
2017-11-11T06:55:17,42.805,6.029,4330,1995,199.094,60.882,13.285
2017-11-11T06:58:17,42.805,6.029,4330,1995,199.146,60.898,13.285
2017-11-11T07:01:17,42.805,6.029,4330,1995,199.088,60.880,13.285
2017-11-11T07:04:17,42.805,6.029,4330,1995,199.144,60.897,13.285
2017-11-11T07:07:17,42.805,6.029,4330,1995,199.088,60.880,13.285
2017-11-11T07:10:17,42.805,6.029,4330,1995,199.066,60.873,13.285
2017-11-11T07:13:17,42.805,6.029,4330,1995,199.070,60.875,13.285
2017-11-11T07:16:17,42.805,6.029,4330,1995,199.003,60.854,13.285
2017-11-11T07:19:17,42.805,6.029,4330,1995,199.037,60.865,13.285
2017-11-11T07:22:17,42.805,6.029,4330,1995,199.029,60.862,13.285
2017-11-11T07:25:17,42.805,6.029,4330,1995,198.988,60.849,13.285
2017-11-11T07:28:17,42.805,6.029,4330,1995,199.074,60.876,13.285
2017-11-11T07:31:17,42.805,6.029,4330,1995,199.076,60.876,13.285
2017-11-11T07:34:17,42.805,6.029,4330,1995,199.075,60.876,13.285
2017-11-11T07:37:17,42.805,6.029,4330,1995,199.061,60.872,13.285
2017-11-11T07:40:17,42.805,6.029,4330,1995,199.076,60.876,13.285
2017-11-11T07:43:17,42.805,6.029,4330,1995,199.096,60.883,13.285
2017-11-11T07:46:17,42.805,6.029,4330,1995,199.060,60.871,13.285
2017-11-11T07:49:17,42.805,6.029,4330,1995,199.062,60.872,13.285
2017-11-11T07:52:16,42.805,6.029,4330,1995,199.046,60.867,13.285
2017-11-11T07:55:16,42.805,6.029,4330,1995,199.068,60.874,13.285
2017-11-11T07:58:16,42.805,6.029,4330,1995,199.046,60.867,13.285
2017-11-11T08:01:16,42.805,6.029,4330,1995,199.094,60.882,13.285
2017-11-11T08:04:16,42.805,6.029,4330,1995,199.103,60.885,13.285
2017-11-11T08:07:16,42.805,6.029,4330,1995,199.153,60.900,13.285
2017-11-11T08:10:16,42.805,6.029,4330,1995,199.081,60.878,13.285
2017-11-11T08:13:16,42.805,6.029,4330,1995,199.099,60.883,13.285
2017-11-11T08:16:16,42.805,6.029,4330,1995,199.129,60.893,13.285
2017-11-11T08:19:16,42.805,6.029,4330,1995,199.111,60.887,13.285
2017-11-11T08:22:16,42.805,6.029,4330,1995,199.072,60.875,13.285
2017-11-11T08:25:16,42.805,6.029,4330,1995,199.108,60.886,13.285
2017-11-11T08:28:16,42.805,6.029,4330,1995,199.069,60.874,13.285
2017-11-11T08:31:16,42.805,6.029,4330,1995,199.067,60.874,13.285
2017-11-11T08:34:16,42.805,6.029,4330,1995,199.107,60.886,13.285
2017-11-11T08:37:16,42.805,6.029,4330,1995,199.117,60.889,13.285
2017-11-11T08:40:16,42.805,6.029,4330,1995,199.069,60.874,13.285
2017-11-11T08:43:16,42.805,6.029,4330,1995,199.088,60.880,13.285
2017-11-11T08:46:16,42.805,6.029,4330,1995,199.079,60.878,13.285
2017-11-11T08:49:16,42.805,6.029,4330,1995,199.061,60.872,13.285
2017-11-11T08:52:16,42.805,6.029,4330,1995,199.116,60.889,13.285
2017-11-11T08:55:16,42.805,6.029,4330,1995,199.095,60.882,13.285
2017-11-11T08:58:16,42.805,6.029,4330,1995,199.118,60.889,13.285
2017-11-11T09:01:16,42.805,6.029,4330,1995,199.093,60.882,13.285
2017-11-11T09:04:16,42.805,6.029,4330,1995,199.058,60.871,13.285
2017-11-11T09:07:16,42.805,6.029,4330,1995,199.052,60.869,13.285
2017-11-11T09:10:16,42.805,6.029,4330,1995,199.123,60.891,13.285
2017-11-11T09:13:16,42.805,6.029,4330,1995,199.117,60.889,13.285
2017-11-11T09:16:16,42.805,6.029,4330,1995,199.094,60.882,13.285
2017-11-11T09:19:16,42.805,6.029,4330,1995,199.107,60.886,13.285
2017-11-11T09:22:16,42.805,6.029,4330,1995,199.077,60.877,13.285
2017-11-11T09:25:16,42.805,6.029,4330,1995,199.051,60.869,13.285
2017-11-11T09:28:16,42.805,6.029,4330,1995,199.093,60.882,13.285
2017-11-11T09:31:16,42.805,6.029,4330,1995,199.115,60.889,13.285
2017-11-11T09:34:16,42.805,6.029,4330,1995,199.043,60.867,13.285
2017-11-11T09:37:16,42.805,6.029,4330,1995,199.077,60.877,13.285
2017-11-11T09:40:16,42.805,6.029,4330,1995,199.117,60.889,13.285
2017-11-11T09:43:16,42.805,6.029,4330,1995,199.087,60.880,13.285
2017-11-11T09:46:16,42.805,6.029,4330,1995,199.115,60.888,13.285
2017-11-11T09:49:16,42.805,6.029,4330,1995,199.029,60.862,13.285
2017-11-11T09:52:16,42.805,6.029,4330,1995,199.059,60.871,13.285
2017-11-11T09:55:16,42.805,6.029,4330,1995,199.058,60.871,13.285
2017-11-11T09:58:16,42.805,6.029,4330,1995,199.067,60.874,13.285
2017-11-11T10:01:16,42.805,6.029,4330,1995,199.058,60.871,13.285
2017-11-11T10:04:16,42.805,6.029,4330,1995,199.059,60.871,13.285
2017-11-11T10:07:16,42.805,6.029,4330,1995,199.093,60.882,13.285
2017-11-11T10:10:16,42.805,6.029,4330,1995,199.093,60.882,13.285
2017-11-11T10:13:16,42.805,6.029,4330,1995,199.111,60.887,13.285
2017-11-11T10:16:16,42.805,6.029,4330,1995,199.147,60.898,13.285
2017-11-11T10:19:16,42.805,6.029,4330,1995,199.096,60.883,13.285
2017-11-11T10:22:16,42.805,6.029,4330,1995,199.116,60.889,13.285
2017-11-11T10:25:16,42.805,6.029,4330,1995,199.152,60.900,13.285
2017-11-11T10:28:16,42.805,6.029,4330,1995,199.169,60.905,13.285
2017-11-11T10:31:16,42.805,6.029,4330,1995,199.097,60.883,13.285
2017-11-11T10:34:16,42.805,6.029,4330,1995,199.125,60.891,13.285
2017-11-11T10:37:16,42.805,6.029,4330,1995,199.170,60.905,13.285
2017-11-11T10:40:16,42.805,6.029,4330,1995,199.083,60.879,13.285
2017-11-11T10:43:16,42.805,6.029,4330,1995,199.108,60.886,13.285
2017-11-11T10:46:16,42.805,6.029,4330,1995,199.150,60.899,13.285
2017-11-11T10:49:16,42.805,6.029,4330,1995,199.155,60.901,13.285
2017-11-11T10:52:16,42.805,6.029,4330,1995,199.137,60.895,13.285
2017-11-11T10:55:16,42.805,6.029,4330,1995,199.101,60.884,13.285
2017-11-11T10:58:16,42.805,6.029,4330,1995,199.173,60.906,13.285
2017-11-11T11:01:16,42.805,6.029,4330,1995,199.179,60.908,13.285
2017-11-11T11:04:16,42.805,6.029,4330,1995,199.107,60.886,13.285
2017-11-11T11:07:16,42.805,6.029,4330,1995,199.129,60.893,13.285
2017-11-11T11:10:16,42.805,6.029,4330,1995,199.170,60.905,13.285
2017-11-11T11:13:16,42.805,6.029,4330,1995,199.149,60.899,13.285
2017-11-11T11:16:16,42.805,6.029,4330,1995,199.133,60.894,13.285
2017-11-11T11:19:16,42.805,6.029,4330,1995,199.144,60.897,13.285
2017-11-11T11:22:16,42.805,6.029,4330,1995,199.151,60.899,13.285
2017-11-11T11:25:16,42.805,6.029,4330,1995,199.155,60.900,13.285
2017-11-11T11:28:16,42.805,6.029,4330,1995,199.191,60.912,13.285
2017-11-11T11:31:16,42.805,6.029,4330,1995,199.159,60.902,13.285
2017-11-11T11:34:16,42.805,6.029,4330,1995,199.143,60.897,13.285
2017-11-11T11:37:16,42.805,6.029,4330,1995,199.164,60.903,13.285
2017-11-11T11:40:16,42.805,6.029,4330,1995,199.130,60.893,13.285
2017-11-11T11:43:16,42.805,6.029,4330,1995,199.073,60.876,13.285
2017-11-11T11:46:16,42.805,6.029,4330,1995,199.126,60.892,13.285
2017-11-11T11:49:16,42.805,6.029,4330,1995,199.116,60.888,13.285
2017-11-11T11:52:16,42.805,6.029,4330,1995,199.102,60.884,13.285
2017-11-11T11:55:16,42.805,6.029,4330,1995,199.091,60.881,13.285
2017-11-11T11:58:16,42.805,6.029,4330,1995,199.135,60.895,13.285
2017-11-11T12:01:16,42.805,6.029,4330,1995,199.152,60.899,13.285
2017-11-11T12:04:16,42.805,6.029,4330,1995,199.091,60.881,13.285
2017-11-11T12:07:16,42.805,6.029,4330,1995,199.074,60.876,13.285
2017-11-11T12:10:16,42.805,6.029,4330,1995,199.075,60.876,13.285
2017-11-11T12:13:16,42.805,6.029,4330,1995,199.111,60.887,13.285
2017-11-11T12:16:16,42.805,6.029,4330,1995,199.103,60.885,13.285
2017-11-11T12:19:16,42.805,6.029,4330,1995,199.081,60.878,13.285
2017-11-11T12:22:16,42.805,6.029,4330,1995,199.146,60.898,13.285
2017-11-11T12:25:16,42.805,6.029,4330,1995,199.048,60.868,13.285
2017-11-11T12:28:16,42.805,6.029,4330,1995,199.086,60.880,13.285
2017-11-11T12:31:16,42.805,6.029,4330,1995,199.038,60.865,13.285
2017-11-11T12:34:16,42.805,6.029,4330,1995,199.054,60.870,13.285
2017-11-11T12:37:16,42.805,6.029,4330,1995,199.025,60.861,13.285
2017-11-11T12:40:16,42.805,6.029,4330,1995,199.030,60.862,13.285
2017-11-11T12:43:16,42.805,6.029,4330,1995,199.028,60.862,13.285
2017-11-11T12:46:16,42.805,6.029,4330,1995,199.006,60.855,13.285
2017-11-11T12:49:16,42.805,6.029,4330,1995,199.029,60.862,13.285
2017-11-11T12:52:16,42.805,6.029,4330,1995,199.051,60.869,13.285
2017-11-11T12:55:16,42.805,6.029,4330,1995,199.013,60.857,13.285
2017-11-11T12:58:16,42.805,6.029,4330,1995,199.032,60.863,13.285
2017-11-11T13:01:16,42.805,6.029,4330,1995,199.053,60.869,13.285
2017-11-11T13:04:16,42.805,6.029,4330,1995,199.039,60.865,13.285
2017-11-11T13:07:16,42.805,6.029,4330,1995,199.047,60.867,13.285
2017-11-11T13:10:16,42.805,6.029,4330,1995,199.017,60.858,13.285
2017-11-11T13:13:16,42.805,6.029,4330,1995,199.013,60.857,13.285
2017-11-11T13:16:16,42.805,6.029,4330,1995,198.998,60.852,13.285
2017-11-11T13:19:16,42.805,6.029,4330,1995,199.026,60.861,13.285
2017-11-11T13:22:16,42.805,6.029,4330,1995,198.983,60.848,13.285
2017-11-11T13:25:16,42.805,6.029,4330,1995,198.962,60.842,13.285
2017-11-11T13:28:16,42.805,6.029,4330,1995,199.004,60.854,13.285
2017-11-11T13:31:16,42.805,6.029,4330,1995,198.993,60.851,13.285
2017-11-11T13:34:16,42.805,6.029,4330,1995,199.070,60.875,13.285
2017-11-11T13:37:16,42.805,6.029,4330,1995,199.011,60.856,13.285
2017-11-11T13:40:16,42.805,6.029,4330,1995,199.027,60.861,13.285
2017-11-11T13:43:16,42.805,6.029,4330,1995,199.097,60.883,13.285
2017-11-11T13:46:16,42.805,6.029,4330,1995,199.088,60.880,13.285
2017-11-11T13:49:16,42.805,6.029,4330,1995,199.103,60.885,13.285
2017-11-11T13:52:16,42.805,6.029,4330,1995,199.108,60.886,13.285
2017-11-11T13:55:16,42.805,6.029,4330,1995,199.108,60.886,13.285
2017-11-11T13:58:16,42.805,6.029,4330,1995,199.101,60.884,13.285
2017-11-11T14:01:16,42.805,6.029,4330,1995,199.118,60.889,13.285
2017-11-11T14:04:16,42.805,6.029,4330,1995,199.124,60.891,13.285
2017-11-11T14:07:16,42.805,6.029,4330,1995,199.114,60.888,13.285
2017-11-11T14:10:16,42.805,6.029,4330,1995,199.122,60.890,13.285
2017-11-11T14:13:16,42.805,6.029,4330,1995,199.155,60.900,13.285
2017-11-11T14:16:16,42.805,6.029,4330,1995,199.095,60.882,13.285
2017-11-11T14:19:16,42.805,6.029,4330,1995,199.141,60.896,13.285
2017-11-11T14:22:16,42.805,6.029,4330,1995,199.198,60.914,13.285
2017-11-11T14:25:16,42.805,6.029,4330,1995,199.167,60.904,13.285
2017-11-11T14:28:16,42.805,6.029,4330,1995,199.197,60.914,13.285
2017-11-11T14:31:16,42.805,6.029,4330,1995,199.181,60.909,13.285
2017-11-11T14:34:16,42.805,6.029,4330,1995,199.191,60.912,13.285
2017-11-11T14:37:16,42.805,6.029,4330,1995,199.158,60.901,13.285
2017-11-11T14:40:16,42.805,6.029,4330,1995,199.195,60.913,13.285
2017-11-11T14:43:16,42.805,6.029,4330,1995,199.176,60.907,13.285
2017-11-11T14:46:16,42.805,6.029,4330,1995,199.200,60.914,13.285
2017-11-11T14:49:16,42.805,6.029,4330,1995,199.147,60.898,13.285
2017-11-11T14:52:16,42.805,6.029,4330,1995,199.146,60.898,13.285
2017-11-11T14:55:16,42.805,6.029,4330,1995,199.204,60.915,13.285
2017-11-11T14:58:16,42.805,6.029,4330,1995,199.164,60.903,13.285
2017-11-11T15:01:16,42.805,6.029,4330,1995,199.125,60.891,13.285
2017-11-11T15:04:16,42.805,6.029,4330,1995,199.173,60.906,13.285
2017-11-11T15:07:16,42.805,6.029,4330,1995,199.190,60.911,13.285
2017-11-11T15:10:16,42.805,6.029,4330,1995,199.195,60.913,13.285
2017-11-11T15:13:16,42.805,6.029,4330,1995,199.185,60.909,13.285
2017-11-11T15:16:16,42.805,6.029,4330,1995,199.178,60.908,13.285
2017-11-11T15:19:16,42.805,6.029,4330,1995,199.155,60.901,13.285
2017-11-11T15:22:16,42.805,6.029,4330,1995,199.127,60.892,13.285
2017-11-11T15:25:16,42.805,6.029,4330,1995,199.139,60.896,13.285
2017-11-11T15:28:16,42.805,6.029,4330,1995,199.169,60.905,13.285
2017-11-11T15:31:16,42.805,6.029,4330,1995,199.113,60.888,13.285
2017-11-11T15:34:16,42.805,6.029,4330,1995,199.096,60.883,13.285
2017-11-11T15:37:16,42.805,6.029,4330,1995,199.189,60.911,13.285
2017-11-11T15:40:16,42.805,6.029,4330,1995,199.128,60.892,13.285
2017-11-11T15:43:16,42.805,6.029,4330,1995,199.116,60.889,13.285
2017-11-11T15:46:16,42.805,6.029,4330,1995,199.070,60.875,13.285
2017-11-11T15:49:16,42.805,6.029,4330,1995,199.090,60.881,13.285
2017-11-11T15:52:16,42.805,6.029,4330,1995,199.100,60.884,13.285
2017-11-11T15:55:16,42.805,6.029,4330,1995,199.027,60.861,13.285
2017-11-11T15:58:16,42.805,6.029,4330,1995,198.985,60.849,13.285
2017-11-11T16:01:16,42.805,6.029,4330,1995,199.105,60.886,13.285
2017-11-11T16:04:16,42.805,6.029,4330,1995,199.018,60.859,13.285
2017-11-11T16:07:16,42.805,6.029,4330,1995,199.134,60.894,13.285
2017-11-11T16:10:16,42.805,6.029,4330,1995,199.107,60.886,13.285
2017-11-11T16:13:16,42.805,6.029,4330,1995,199.075,60.876,13.285
2017-11-11T16:16:16,42.805,6.029,4330,1995,199.095,60.882,13.285
2017-11-11T16:19:16,42.805,6.029,4330,1995,199.074,60.876,13.285
2017-11-11T16:22:16,42.805,6.029,4330,1995,199.080,60.878,13.285
2017-11-11T16:25:16,42.805,6.029,4330,1995,199.063,60.873,13.285
2017-11-11T16:28:16,42.805,6.029,4330,1995,199.090,60.881,13.285
2017-11-11T16:31:16,42.805,6.029,4330,1995,199.194,60.912,13.285
2017-11-11T16:34:16,42.805,6.029,4330,1995,199.172,60.906,13.285
2017-11-11T16:37:16,42.805,6.029,4330,1995,199.102,60.885,13.285
2017-11-11T16:40:16,42.805,6.029,4330,1995,199.109,60.887,13.285
2017-11-11T16:43:16,42.805,6.029,4330,1995,199.067,60.874,13.285
2017-11-11T16:46:16,42.805,6.029,4330,1995,199.081,60.878,13.285
2017-11-11T16:49:16,42.805,6.029,4330,1995,199.135,60.894,13.285
2017-11-11T16:52:16,42.805,6.029,4330,1995,199.128,60.893,13.285
2017-11-11T16:55:16,42.805,6.029,4330,1995,199.135,60.894,13.285
2017-11-11T16:58:16,42.805,6.029,4330,1995,199.062,60.872,13.285
2017-11-11T17:01:16,42.805,6.029,4330,1995,199.109,60.887,13.285
2017-11-11T17:04:16,42.805,6.029,4330,1995,199.197,60.913,13.285
2017-11-11T17:07:16,42.805,6.029,4330,1995,199.181,60.909,13.285
2017-11-11T17:10:16,42.805,6.029,4330,1995,199.153,60.900,13.285
2017-11-11T17:13:16,42.805,6.029,4330,1995,199.136,60.895,13.285
2017-11-11T17:16:16,42.805,6.029,4330,1995,199.151,60.899,13.285
2017-11-11T17:19:16,42.805,6.029,4330,1995,199.202,60.915,13.285
2017-11-11T17:22:16,42.805,6.029,4330,1995,199.171,60.905,13.285
2017-11-11T17:25:16,42.805,6.029,4330,1995,199.164,60.903,13.285
2017-11-11T17:28:16,42.805,6.029,4330,1995,199.164,60.903,13.285
2017-11-11T17:31:16,42.805,6.029,4330,1995,199.111,60.887,13.285
2017-11-11T17:34:16,42.805,6.029,4330,1995,199.162,60.903,13.285
2017-11-11T17:37:16,42.805,6.029,4330,1995,199.180,60.908,13.285
2017-11-11T17:40:16,42.805,6.029,4330,1995,199.243,60.928,13.285
2017-11-11T17:43:16,42.805,6.029,4330,1995,199.196,60.913,13.285
2017-11-11T17:46:16,42.805,6.029,4330,1995,199.177,60.907,13.285
2017-11-11T17:49:16,42.805,6.029,4330,1995,199.199,60.914,13.285
2017-11-11T17:52:16,42.805,6.029,4330,1995,199.220,60.921,13.285
2017-11-11T17:55:16,42.805,6.029,4330,1995,199.190,60.912,13.285
2017-11-11T17:58:16,42.805,6.029,4330,1995,199.178,60.908,13.285
2017-11-11T18:01:16,42.805,6.029,4330,1995,199.221,60.920,13.285
2017-11-11T18:04:16,42.805,6.029,4330,1995,199.233,60.924,13.285
2017-11-11T18:07:16,42.805,6.029,4330,1995,199.181,60.908,13.285